Weather History for Worcester, MA

Change the Weather History Date:

Monday, March 11, 2013

  Actual Average Record
Temperature  
Mean Temperature 39 °F 33 °F  
Max Temperature 47 °F 41 °F 66 °F (1977)
Min Temperature 31 °F 25 °F 0 °F (1939)
Degree Days  
Heating Degree Days 26 32  
Month to date heating degree days 341 369  
Since 1 July heating degree days 4778 5206  
Cooling Degree Days 0 0  
Month to date cooling degree days 0 0  
Year to date cooling degree days 0 0  
Moisture  
Dew Point 33 °F    
Average Humidity 79    
Maximum Humidity 100    
Minimum Humidity 58    
Precipitation  
Precipitation 0.00 in 0.12 in 2.25 in (1901)
Month to date precipitation 1.41 1.39  
Year to date precipitation 8.29 8.11  
Sea Level Pressure  
Sea Level Pressure 30.21 in    
Wind  
Wind Speed 11 mph (SSW)    
Max Wind Speed 16 mph    
Max Gust Speed 22 mph    
Visibility 10 miles    
Events      
T = Trace of Precipitation, MM = Missing Value Source: NWS Daily Summary

Daily Weather History Graph

Daily Weather History Graph

Search for Another Location

Airport:

Trip Planner

Search our weather history database for the weather conditions in past years. The results will help you decide how hot, cold, wet, or windy it might be!

Date:

Astronomy

Mar. 11, 2013 Rise Set
Actual Time 7:05 AM EDT 6:49 PM EDT
Civil Twilight 6:37 AM EDT 7:17 PM EDT
Nautical Twilight 6:05 AM EDT 7:50 PM EDT
Astronomical Twilight 5:32 AM EDT 8:23 PM EDT
Moon 6:37 AM EDT (3/11) 6:59 PM EDT (3/11)
Length of Visible Light 12h 39m
Length of Day
11h 43m
Waning Crescent, 0% of the Moon is Illuminated
Mar 11
Waning Crescent
Mar 11
New
Mar 19
First Quarter
Mar 27
Full
Apr 3
Last Quarter

Hourly Weather History & Observations

Time (EDT) Temp. Windchill Dew Point Humidity Pressure Visibility Wind Dir Wind Speed Gust Speed Precip Events Conditions
12:54 AM 32.0 °F 23.0 °F 28.4 °F 87% 30.27 in 10.0 mi SW 11.5 mph - N/A   Scattered Clouds
1:03 AM 32.0 °F 22.5 °F 28.9 °F 88% 30.27 in 10.0 mi SW 12.7 mph - N/A   Mostly Cloudy
1:54 AM 32.0 °F 23.0 °F 30.0 °F 92% 30.30 in 10.0 mi SSW 11.5 mph - N/A   Overcast
2:54 AM 32.0 °F 23.6 °F 30.0 °F 92% 30.28 in 10.0 mi SSW 10.4 mph - N/A   Overcast
3:37 AM 32.0 °F 24.2 °F 30.0 °F 92% 30.24 in 10.0 mi SW 9.2 mph - N/A   Overcast
3:54 AM 32.0 °F 23.6 °F 30.0 °F 92% 30.27 in 10.0 mi SW 10.4 mph - N/A   Overcast
4:54 AM 30.9 °F 22.8 °F 30.0 °F 96% 30.26 in 10.0 mi SSW 9.2 mph - N/A   Overcast
5:54 AM 30.9 °F 21.2 °F 28.9 °F 92% 30.25 in 10.0 mi SW 12.7 mph - N/A   Overcast
6:54 AM 30.9 °F 22.2 °F 28.9 °F 92% 30.25 in 10.0 mi SW 10.4 mph - N/A   Overcast
7:54 AM 32.0 °F 24.2 °F 30.0 °F 92% 30.25 in 10.0 mi SW 9.2 mph - N/A   Unknown
8:20 AM 32.0 °F 22.5 °F 30.0 °F 92% 30.22 in 10.0 mi SW 12.7 mph - N/A   Overcast
8:54 AM 34.0 °F 25.5 °F 30.9 °F 89% 30.25 in 10.0 mi SW 11.5 mph - N/A   Overcast
9:54 AM 36.0 °F 27.5 °F 32.0 °F 86% 30.25 in 10.0 mi SW 12.7 mph - N/A   Mostly Cloudy
10:08 AM 37.0 °F 28.5 °F 32.0 °F 82% 30.22 in 10.0 mi SSW 13.8 mph - N/A   Partly Cloudy
10:54 AM 39.0 °F 32.3 °F 32.0 °F 76% 30.26 in 10.0 mi SW 10.4 mph - N/A   Clear
11:54 AM 41.0 °F 33.9 °F 30.9 °F 67% 30.26 in 10.0 mi SW 12.7 mph - N/A   Clear
12:54 PM 43.0 °F 37.7 °F 32.0 °F 65% 30.25 in 10.0 mi SW 9.2 mph - N/A   Clear
1:54 PM 44.1 °F 39.5 °F 32.0 °F 63% 30.22 in 10.0 mi SSW 8.1 mph - N/A   Clear
2:54 PM 46.0 °F 40.2 °F 32.0 °F 58% 30.19 in 10.0 mi SSW 12.7 mph - N/A   Clear
3:54 PM 46.9 °F - 32.0 °F 56% 30.19 in 10.0 mi SSW 12.7 mph - N/A   Mostly Cloudy
4:54 PM 46.0 °F 41.0 °F 32.0 °F 58% 30.18 in 10.0 mi SSW 10.4 mph - N/A   Partly Cloudy
5:54 PM 45.0 °F 40.1 °F 34.0 °F 65% 30.18 in 10.0 mi SSW 9.2 mph - N/A   Clear
6:54 PM 42.8 °F 37.0 °F 35.6 °F 76% 30.14 in 10.0 mi SSW 10.4 mph - N/A   Clear
7:54 PM 42.1 °F 36.6 °F 36.0 °F 79% 30.17 in 10.0 mi South 9.2 mph - N/A   Partly Cloudy
8:11 PM 42.1 °F 36.6 °F 37.0 °F 82% 30.14 in 10.0 mi SSW 9.2 mph - N/A   Mostly Cloudy
8:54 PM 41.0 °F 34.3 °F 37.0 °F 86% 30.18 in 10.0 mi SSW 11.5 mph - N/A   Mostly Cloudy
9:54 PM 41.0 °F 33.1 °F 37.9 °F 89% 30.17 in 10.0 mi SSW 15.0 mph - N/A   Mostly Cloudy
10:20 PM 41.0 °F 33.9 °F 39.0 °F 93% 30.13 in 10.0 mi SSW 12.7 mph 21.9 mph N/A   Mostly Cloudy
10:27 PM 41.0 °F 33.9 °F 39.0 °F 93% 30.13 in 10.0 mi SSW 12.7 mph 21.9 mph N/A   Mostly Cloudy
10:36 PM 41.0 °F 34.3 °F 39.0 °F 93% 30.12 in 10.0 mi SSW 11.5 mph - N/A   Overcast
10:54 PM 41.0 °F 33.5 °F 39.0 °F 93% 30.15 in 10.0 mi SSW 13.8 mph - N/A   Overcast
11:54 PM 41.0 °F 33.1 °F 39.9 °F 96% 30.14 in 10.0 mi SSW 15.0 mph - N/A   Overcast